Regional Weather Roundup
Issued by NWS

Home | Current Version | Previous Version | Graphics & Text | Print | Product List | Glossary On
Versions: 1 2 3 4 5 6 7 8 9 10 11 12 13 14 15 16 17 18 19 20 21 22 23 24 25 26 27 28 29 30 31 32 33 34 35 36 37 38 39 40 41 42 43 44 45 46 47 48 49 50
000
ASUS43 KMKX 102120
RWRWI

WISCONSIN REGIONAL WEATHER ROUNDUP
NATIONAL WEATHER SERVICE MILWAUKEE/SULLIVAN WI
300 PM CST SUN DEC 10 2017

NOTE: "FAIR" INDICATES FEW OR NO CLOUDS BELOW 12,000 FEET WITH NO
SIGNIFICANT WEATHER AND/OR OBSTRUCTIONS TO VISIBILITY.

WIZ001-002-006>008-014>016-023>028-102200-
NORTHWEST WISCONSIN

CITY           SKY/WX    TMP DP  RH WIND       PRES   REMARKS
SUPERIOR ARPT  CLOUDY    24  15  68 NW7       30.03R WCI  16
ASHLAND        CLOUDY    21  13  71 NW7       30.01R WCI  12
HAYWARD        CLOUDY    22  13  68 VRB7      29.98R WCI  13
SIREN          CLOUDY    26  17  66 N3        30.01R
CUMBERLAND     CLOUDY    25  14  63 NW5       29.98S WCI  19
RICE LAKE      CLOUDY    26  18  72 CALM      30.01R
CHETEK         CLOUDY    25  18  74 CALM      29.99S
LADYSMITH      CLOUDY    24  17  77 NW12      29.99R WCI  12
EAU CLAIRE     CLOUDY    27  18  69 NW6       29.99R WCI  20
MENOMONIE      CLOUDY    28  20  69 W8        30.00R WCI  20
NEW RICHMOND   CLOUDY    29  19  68 NW7       30.00S WCI  22
OSCEOLA        CLOUDY    30  20  67 NW5       30.03R WCI  25
$$

WIZ003>005-009-010-017-018-102200-
NORTH CENTRAL WISCONSIN

CITY           SKY/WX    TMP DP  RH WIND       PRES   REMARKS
MANITOWISH WTR CLOUDY    18  16  90 N8        29.92R WCI   8
ARBOR VITAE    CLOUDY    22  19  87 N10       29.91R WCI  11
WOODRUFF       CLOUDY    22  19  87 N10       29.91R WCI  11
RHINELANDER    FLURRIES  20  16  84 VRB3      29.90R
EAGLE RIVER    FLURRIES  18  14  82 N8        29.89R WCI   8
LAND O LAKES   LGT SNOW  17  14  88 N9        29.92R WCI   5
PHILLIPS       CLOUDY    19  15  84 NW8       29.93R WCI   9
TOMAHAWK       FLURRIES  21  15  79 NW8       29.92R WCI  11
MEDFORD        CLOUDY    22  16  79 NW8       29.93R WCI  12
MERRILL        FLURRIES  23  17  78 NW8       29.93R WCI  13
$$

WIZ029-030-035-036-043>047-102200-
CENTRAL WISCONSIN

CITY           SKY/WX    TMP DP  RH WIND       PRES   REMARKS
WAUSAU         CLOUDY    23  17  78 NW9       29.93R WCI  13
MOSINEE        CLOUDY    23  19  86 NW12      29.95R WCI  12
MARSHFIELD     CLOUDY    24  17  74 NW12      29.94R WCI  13
STEVENS POINT  CLOUDY    23  17  76 NW9       29.95R WCI  13
WAUPACA        CLOUDY    28  19  69 NW8       29.95R WCI  20
WAUTOMA        CLOUDY    26  19  74 NW7       29.96R WCI  18
WISC RAPIDS    CLOUDY    25  17  72 N9        29.97R WCI  15
CAMP DOUGLAS   CLOUDY    28  18  64 NW9       29.97R WCI  20
$$

WIZ011>013-019>022-031-037>040-048>050-102200-
NORTHEAST WISCONSIN

CITY           SKY/WX    TMP DP  RH WIND       PRES   REMARKS
ANTIGO         FLURRIES  21  17  86 N9        29.90R WCI  10
SHAWANO        CLOUDY    28  17  64 NW8       29.92R WCI  20
OCONTO         CLOUDY    25  14  62 N8        29.93R WCI  17
STURGEON BAY   CLOUDY    25  16  68 NW12      29.91R WCI  14
GREEN BAY      CLOUDY    26  19  74 NW8       29.93R WCI  18
MANITOWOC      CLOUDY    25  17  72 NW9       29.93R WCI  15
APPLETON       CLOUDY    25  16  68 NW9       29.92R WCI  15
CLINTONVILLE   CLOUDY    27  16  63 NW6       29.93R WCI  20
OSHKOSH        CLOUDY    25  18  74 NW12      29.94R WCI  14
$$

WIZ032>034-041-042-053>061-102200-
SOUTHWEST WISCONSIN

CITY           SKY/WX    TMP DP  RH WIND       PRES   REMARKS
LA CROSSE      CLOUDY    30  21  69 NW9       30.02R WCI  22
SPARTA         CLOUDY    27  20  74 NW10G17   30.01R WCI  17
VIROQUA        CLOUDY    27  22  83 NW12      29.97R WCI  16
BOSCOBEL       CLOUDY    31  20  63 NW8       30.02R WCI  23
PRAIRIE DU CHI CLOUDY    31  20  63 NW7       30.02R WCI  25
PLATTEVILLE    CLOUDY    30  24  76 NW12      29.99R WCI  21
$$

WIZ056-057-062-063-064-067-068-102200-
SOUTH CENTRAL WISCONSIN

CITY           SKY/WX    TMP DP  RH WIND       PRES   REMARKS
REEDSBURG      CLOUDY    28  19  68 NW10      29.97R WCI  18
BARABOO/DELLS  CLOUDY    28  18  68 NW9       29.96R WCI  19
LONE ROCK      CLOUDY    30  21  69 NW10      29.99R WCI  21
MINERAL POINT  CLOUDY    32  25  74 NW10      29.97R WCI  24
MADISON        PTSUNNY   29  19  66 N9G21     29.95R WCI  20
MIDDLETON      CLOUDY    31  21  65 NW12      29.95R WCI  22
WATERTOWN      PTSUNNY   27  21  78 N6        29.94R WCI  21
MONROE         CLOUDY    30  21  69 NW9       29.94R WCI  22
JANESVILLE     CLOUDY    34  21  60 NW13      29.93R WCI  25
$$

WIZ051-052-058>065-066-070>072-102200-
SOUTHEAST WISCONSIN

CITY           SKY/WX    TMP DP  RH WIND       PRES   REMARKS
MILWAUKEE      CLOUDY    28  20  71 NW10      29.93R WCI  19
WAUKESHA       PTSUNNY   25  18  74 NW9       29.93R WCI  15
MILWAUKEE/TIMM CLOUDY    27  18  69 NW12      29.93R WCI  16
RACINE         CLOUDY    28  19  69 NW8G21    29.94R WCI  20
BURLINGTON     PTSUNNY   36  32  85 N10       29.93R WCI  28
KENOSHA        CLOUDY    29  19  66 NW13      29.93R WCI  19
FOND DU LAC    CLOUDY    26  18  71 N9        29.94R WCI  17
SHEBOYGAN      MOCLDY    25  19  78 NW10      29.94R WCI  15
WEST BEND      CLOUDY    27  19  74 NW12      29.92R WCI  16
JUNEAU         CLOUDY    26  18  73 NW8       29.94R WCI  17
$$

LSZ147-162-102200-
LAKE SUPERIOR

STATION/POSITION TIME  TEMP    WIND        PRES    WAVE
                       AIR SEA DIR/SP/G            HT/PER
                 (UTC) (F)     (DEG/KT/KT) (MB)    (FT/S)
DEVILS ISLAND    2100   21     290/  8/ 11 1017.7R
SAXON HARBOR     2040   23                 1015.6R
$$

LMZ867-665-643>646-102200-
LAKE MICHIGAN

STATION/POSITION TIME  TEMP    WIND        PRES    WAVE
                       AIR SEA DIR/SP/G            HT/PER
                 (UTC) (F)     (DEG/KT/KT) (MB)    (FT/S)
NORTHPORT PIER   2101   26     350/ 20/ 25 1012.9
KEWAUNEE LAKESHO 2054   26     320/  7/ 10 1012.2R
SHEBOYGAN LAKESH 2100   25     310/ 12/ 15 1014.5R
PORT WASHINGTON  2040   27     320/  8/ 13 1014.2R
MILWAUKEE LAKESH 2100   28     310/  8/ 10   N/A
KENOSHA   LAKESH 2100   29     310/ 12/ 15 1013.9
$$

TC  - TEMPERATURE IN CELSIUS
VSB - VISIBILITY IN STATUTE MILES
WCI - WIND CHILL INDEX
HX  - HEAT INDEX





USA.gov is the U.S. government's official web portal to all federal, state and local government web resources and services.